When you browse on this site, cookies collect data to enhance your experience and personalize the content and advertising you see.
Visit our Privacy Policy to learn more. By continuing to use the site, you agree to this use of cookies and data.
  • In United Kingdom
  • List of Countries
  • For 7 days
  • Water Temperature
  • Satellite Maps
  • Weather Map
  • Weather Widgets
  • user-avatar
    Login

    Hourly Weather Jamusukro

    Today, 22 January, Tuesday

    Time Temperature Precipitation Wind Pressure Humidity
    00:00 +25°C° 0 mm 0 mps 753 mmHg 86%
    01:00 +25°C° 0 mm 0 mps 752 mmHg 88%
    02:00 +25°C° 0 mm 0 mps 752 mmHg 90%
    03:00 +24°C° 0 mm 0 mps 752 mmHg 92%
    04:00 +24°C° 0 mm 0 mps 752 mmHg 94%
    05:00 +24°C° 0 mm 0 mps 752 mmHg 95%
    06:00 +24°C° 0 mm 0 mps 753 mmHg 95%
    07:00 +28°C° 0 mm 1 mps 753 mmHg 83%
    08:00 +31°C° 0 mm 1 mps 753 mmHg 71%
    09:00 +33°C° 0 mm 1 mps 753 mmHg 59%
    10:00 +36°C° 0 mm 1 mps 753 mmHg 49%
    11:00 +39°C° 0 mm 1 mps 753 mmHg 39%
    12:00 +41°C° 0 mm 1 mps 752 mmHg 28%
    13:00 +41°C° 0 mm 1 mps 752 mmHg 28%
    14:00 +41°C° 0 mm 1 mps 751 mmHg 28%
    15:00 +41°C° 0 mm 1 mps 750 mmHg 27%
    16:00 +38°C° 0 mm 2 mps 750 mmHg 41%
    17:00 +36°C° 0 mm 3 mps 751 mmHg 54%
    18:00 +33°C° 0 mm 3 mps 751 mmHg 67%
    19:00 +31°C° 0 mm 3 mps 751 mmHg 72%
    20:00 +30°C° 0 mm 2 mps 752 mmHg 77%
    21:00 +29°C° 0 mm 1 mps 752 mmHg 82%
    22:00 +28°C° 0 mm 1 mps 752 mmHg 85%
    23:00 +28°C° 0 mm 1 mps 753 mmHg 88%

    Tomorrow, 23 January, Wednesday

    Time Temperature Precipitation Wind Pressure Humidity
    00:00 +26°C° 0 mm 0 mps 753 mmHg 91%
    01:00 +25°C° 0 mm 0 mps 752 mmHg 92%
    02:00 +25°C° 0 mm 0 mps 752 mmHg 94%
    03:00 +25°C° 0 mm 0 mps 752 mmHg 95%
    04:00 +25°C° 0.1 mm 0 mps 752 mmHg 93%
    05:00 +26°C° 0.1 mm 0 mps 752 mmHg 91%
    06:00 +26°C° 0.1 mm 0 mps 752 mmHg 89%
    07:00 +29°C° 0.1 mm 1 mps 753 mmHg 83%
    08:00 +30°C° 0.1 mm 1 mps 753 mmHg 77%
    09:00 +31°C° 0.1 mm 1 mps 754 mmHg 72%
    10:00 +33°C° 0.1 mm 1 mps 753 mmHg 63%
    11:00 +35°C° 0.1 mm 1 mps 753 mmHg 55%
    12:00 +38°C° 0.1 mm 2 mps 753 mmHg 47%
    13:00 +38°C° 0 mm 2 mps 752 mmHg 46%
    14:00 +38°C° 0 mm 2 mps 751 mmHg 45%
    15:00 +38°C° 0 mm 3 mps 750 mmHg 44%
    16:00 +36°C° 0 mm 3 mps 750 mmHg 51%
    17:00 +34°C° 0 mm 3 mps 750 mmHg 59%
    18:00 +31°C° 0 mm 3 mps 751 mmHg 67%
    19:00 +30°C° 0 mm 2 mps 751 mmHg 72%
    20:00 +30°C° 0 mm 2 mps 752 mmHg 77%
    21:00 +29°C° 0 mm 2 mps 753 mmHg 82%
    22:00 +28°C° 0 mm 2 mps 753 mmHg 84%
    23:00 +28°C° 0 mm 1 mps 752 mmHg 86%

    Day after tomorrow, 24 January, Thursday

    Time Temperature Precipitation Wind Pressure Humidity
    00:00 +28°C° 0 mm 1 mps 752 mmHg 88%
    01:00 +27°C° 0.5 mm 1 mps 752 mmHg 90%
    02:00 +27°C° 0.5 mm 1 mps 751 mmHg 92%
    03:00 +27°C° 0.5 mm 1 mps 751 mmHg 94%
    04:00 +26°C° 0.6 mm 1 mps 751 mmHg 94%
    05:00 +26°C° 0.6 mm 1 mps 751 mmHg 95%
    06:00 +26°C° 0.6 mm 1 mps 752 mmHg 96%
    07:00 +28°C° 0 mm 1 mps 752 mmHg 86%
    08:00 +30°C° 0 mm 1 mps 753 mmHg 75%
    09:00 +32°C° 0 mm 2 mps 754 mmHg 65%
    10:00 +34°C° 0.5 mm 2 mps 753 mmHg 62%
    11:00 +34°C° 0.5 mm 2 mps 752 mmHg 59%
    12:00 +35°C° 0.5 mm 2 mps 752 mmHg 55%
    13:00 +35°C° 0.5 mm 2 mps 751 mmHg 54%
    14:00 +36°C° 0.5 mm 2 mps 750 mmHg 53%
    15:00 +36°C° 0.5 mm 2 mps 750 mmHg 52%
    16:00 +34°C° 0 mm 2 mps 750 mmHg 57%
    17:00 +32°C° 0 mm 2 mps 750 mmHg 63%
    18:00 +31°C° 0 mm 2 mps 751 mmHg 68%
    19:00 +30°C° 0 mm 2 mps 751 mmHg 73%
    20:00 +29°C° 0 mm 2 mps 752 mmHg 78%
    21:00 +28°C° 0 mm 1 mps 753 mmHg 82%
    22:00 +28°C° 0 mm 1 mps 752 mmHg 85%
    23:00 +28°C° 0 mm 1 mps 752 mmHg 87%

    25 January, Friday

    Time Temperature Precipitation Wind Pressure Humidity
    00:00 +27°C° 0 mm 1 mps 752 mmHg 89%
    01:00 +27°C° 0 mm 1 mps 752 mmHg 90%
    02:00 +27°C° 0 mm 1 mps 751 mmHg 92%
    03:00 +26°C° 0 mm 1 mps 751 mmHg 93%
    04:00 +27°C° 0.1 mm 1 mps 751 mmHg 93%
    05:00 +27°C° 0.1 mm 1 mps 751 mmHg 93%
    06:00 +27°C° 0.1 mm 1 mps 752 mmHg 94%
    07:00 +29°C° 0 mm 1 mps 752 mmHg 84%
    08:00 +30°C° 0 mm 1 mps 753 mmHg 74%
    09:00 +32°C° 0 mm 2 mps 754 mmHg 65%
    10:00 +34°C° 1 mm 2 mps 753 mmHg 63%
    11:00 +35°C° 1 mm 2 mps 753 mmHg 61%
    12:00 +35°C° 1 mm 2 mps 752 mmHg 58%
    13:00 +35°C° 2 mm 2 mps 751 mmHg 60%
    14:00 +35°C° 2 mm 2 mps 750 mmHg 61%
    15:00 +34°C° 2 mm 2 mps 750 mmHg 62%
    16:00 +32°C° 0.1 mm 2 mps 750 mmHg 66%
    17:00 +31°C° 0.1 mm 2 mps 750 mmHg 71%
    18:00 +30°C° 0.1 mm 2 mps 751 mmHg 75%
    19:00 +29°C° 0 mm 2 mps 751 mmHg 79%
    20:00 +29°C° 0 mm 1 mps 752 mmHg 82%
    21:00 +28°C° 0 mm 1 mps 753 mmHg 85%
    22:00 +28°C° 0 mm 1 mps 752 mmHg 87%
    23:00 +28°C° 0 mm 1 mps 752 mmHg 90%

    26 January, Saturday

    Time Temperature Precipitation Wind Pressure Humidity
    00:00 +27°C° 0 mm 1 mps 752 mmHg 92%
    01:00 +27°C° 0.2 mm 1 mps 752 mmHg 93%
    02:00 +27°C° 0.2 mm 1 mps 751 mmHg 94%
    03:00 +27°C° 0.2 mm 1 mps 751 mmHg 96%
    04:00 +27°C° 0 mm 1 mps 751 mmHg 96%
    05:00 +25°C° 0 mm 0 mps 752 mmHg 96%
    06:00 +25°C° 0 mm 0 mps 752 mmHg 96%
    07:00 +28°C° 0.1 mm 1 mps 753 mmHg 91%
    08:00 +29°C° 0.1 mm 1 mps 753 mmHg 86%
    09:00 +30°C° 0.1 mm 1 mps 754 mmHg 81%
    10:00 +32°C° 0 mm 1 mps 753 mmHg 71%
    11:00 +34°C° 0 mm 1 mps 752 mmHg 61%
    12:00 +36°C° 0 mm 1 mps 752 mmHg 50%
    13:00 +37°C° 0.1 mm 2 mps 751 mmHg 49%
    14:00 +37°C° 0.1 mm 2 mps 750 mmHg 47%
    15:00 +38°C° 0.1 mm 2 mps 750 mmHg 46%
    16:00 +35°C° 0.3 mm 2 mps 750 mmHg 57%
    17:00 +32°C° 0.3 mm 2 mps 750 mmHg 68%
    18:00 +30°C° 0.3 mm 2 mps 751 mmHg 79%
    19:00 +29°C° 0 mm 2 mps 751 mmHg 82%
    20:00 +29°C° 0 mm 2 mps 752 mmHg 86%
    21:00 +28°C° 0 mm 2 mps 752 mmHg 89%
    22:00 +28°C° 0 mm 2 mps 752 mmHg 90%
    23:00 +28°C° 0 mm 1 mps 752 mmHg 92%

    27 January, Sunday

    Time Temperature Precipitation Wind Pressure Humidity
    00:00 +28°C° 0 mm 1 mps 752 mmHg 93%
    01:00 +28°C° 0.1 mm 1 mps 752 mmHg 92%
    02:00 +28°C° 0.1 mm 1 mps 751 mmHg 91%
    03:00 +28°C° 0.1 mm 1 mps 751 mmHg 90%
    04:00 +28°C° 0.1 mm 1 mps 751 mmHg 90%
    05:00 +28°C° 0.1 mm 1 mps 751 mmHg 90%
    06:00 +28°C° 0.1 mm 1 mps 752 mmHg 90%
    07:00 +29°C° 0.2 mm 1 mps 752 mmHg 85%
    08:00 +30°C° 0.2 mm 2 mps 752 mmHg 80%
    09:00 +31°C° 0.2 mm 2 mps 753 mmHg 75%
    10:00 +32°C° 0.6 mm 2 mps 752 mmHg 70%
    11:00 +34°C° 0.6 mm 2 mps 752 mmHg 64%
    12:00 +35°C° 0.6 mm 2 mps 751 mmHg 59%
    13:00 +34°C° 0.9 mm 2 mps 750 mmHg 62%
    14:00 +34°C° 0.9 mm 2 mps 750 mmHg 64%
    15:00 +32°C° 0.9 mm 2 mps 749 mmHg 67%
    16:00 +31°C° 0.2 mm 2 mps 750 mmHg 72%
    17:00 +30°C° 0.2 mm 2 mps 750 mmHg 77%
    18:00 +29°C° 0.2 mm 1 mps 751 mmHg 82%
    19:00 +29°C° 0 mm 1 mps 751 mmHg 84%
    20:00 +28°C° 0 mm 1 mps 752 mmHg 87%
    21:00 +28°C° 0 mm 1 mps 752 mmHg 89%
    22:00 +28°C° 0 mm 1 mps 752 mmHg 90%
    23:00 +27°C° 0 mm 1 mps 752 mmHg 91%
    Show more